Time,TemperatureF,DewpointF,PressureIn,WindDirection,WindDirectionDegrees,WindSpeedMPH,WindSpeedGustMPH,Humidity,HourlyPrecipIn,Conditions,Clouds,dailyrainin,SoftwareType,DateUTC
2013-04-25 00:01:00,53.6,49.5,29.85,SSE,158,2.9,6.9,86,0.00,,,0.00,WUHU216HW,2013-04-25 04:01:00,
2013-04-25 00:06:00,53.8,49.4,29.85,SW,225,1.1,3.8,85,0.00,,,0.00,WUHU216HW,2013-04-25 04:06:00,
2013-04-25 00:11:00,53.8,49.7,29.85,SW,225,2.5,3.6,86,0.00,,,0.00,WUHU216HW,2013-04-25 04:11:00,
2013-04-25 00:16:00,53.8,49.7,29.86,South,180,0.0,2.5,86,0.00,,,0.00,WUHU216HW,2013-04-25 04:16:00,
2013-04-25 00:21:00,54.0,49.6,29.86,SW,225,0.9,2.5,85,0.00,,,0.00,WUHU216HW,2013-04-25 04:21:00,
2013-04-25 00:26:00,54.0,49.6,29.85,SSE,158,0.0,2.2,85,0.00,,,0.00,WUHU216HW,2013-04-25 04:26:00,
2013-04-25 00:31:00,54.0,49.6,29.86,SSE,158,0.7,2.2,85,0.00,,,0.00,WUHU216HW,2013-04-25 04:31:00,
2013-04-25 00:36:00,54.2,49.8,29.86,South,180,2.2,2.2,85,0.00,,,0.00,WUHU216HW,2013-04-25 04:36:00,
2013-04-25 00:41:00,54.4,50.0,29.86,South,180,1.1,2.5,85,0.00,,,0.00,WUHU216HW,2013-04-25 04:41:00,
2013-04-25 00:46:00,54.4,50.2,29.86,SW,225,1.8,2.5,86,0.00,,,0.00,WUHU216HW,2013-04-25 04:46:00,
2013-04-25 00:51:00,54.5,50.4,29.86,SSE,158,1.6,4.0,86,0.00,,,0.00,WUHU216HW,2013-04-25 04:51:00,
2013-04-25 00:56:00,54.7,50.6,29.85,SSE,158,1.1,4.3,86,0.00,,,0.00,WUHU216HW,2013-04-25 04:56:00,
2013-04-25 01:01:00,54.7,50.2,29.85,South,180,1.6,4.3,85,0.00,,,0.00,WUHU216HW,2013-04-25 05:01:00,
2013-04-25 01:06:00,54.9,50.4,29.85,South,180,1.3,3.6,85,0.00,,,0.00,WUHU216HW,2013-04-25 05:06:00,
2013-04-25 01:11:00,55.1,50.6,29.85,SSE,158,1.8,3.6,85,0.00,,,0.00,WUHU216HW,2013-04-25 05:11:00,
2013-04-25 01:16:00,55.1,50.6,29.85,South,180,2.5,2.7,85,0.00,,,0.00,WUHU216HW,2013-04-25 05:16:00,
2013-04-25 01:21:00,55.1,50.6,29.85,SSW,203,2.0,3.4,85,0.00,,,0.00,WUHU216HW,2013-04-25 05:21:00,
2013-04-25 01:26:00,55.1,50.6,29.86,South,180,1.8,3.4,85,0.00,,,0.00,WUHU216HW,2013-04-25 05:26:00,
2013-04-25 01:31:00,55.1,50.6,29.86,SSE,158,0.9,5.4,85,0.00,,,0.00,WUHU216HW,2013-04-25 05:31:00,
2013-04-25 01:36:00,55.1,50.6,29.86,SSE,158,2.9,5.4,85,0.00,,,0.00,WUHU216HW,2013-04-25 05:36:00,
2013-04-25 01:41:00,55.1,50.6,29.86,SW,225,1.6,4.5,85,0.00,,,0.00,WUHU216HW,2013-04-25 05:41:00,
2013-04-25 01:46:00,55.1,50.6,29.86,SSE,158,3.4,4.5,85,0.00,,,0.00,WUHU216HW,2013-04-25 05:46:00,
2013-04-25 01:51:00,55.1,50.6,29.87,South,180,1.6,3.8,85,0.00,,,0.00,WUHU216HW,2013-04-25 05:51:00,
2013-04-25 01:56:00,55.1,50.6,29.87,SSE,158,1.3,3.8,85,0.00,,,0.00,WUHU216HW,2013-04-25 05:56:00,
2013-04-25 02:01:00,55.1,50.6,29.88,SW,225,1.1,2.0,85,0.00,,,0.00,WUHU216HW,2013-04-25 06:01:00,
2013-04-25 02:06:00,55.3,50.8,29.88,SSE,158,2.0,2.0,85,0.00,,,0.00,WUHU216HW,2013-04-25 06:06:00,
2013-04-25 02:11:00,55.4,50.9,29.87,SSW,203,2.2,3.8,85,0.00,,,0.00,WUHU216HW,2013-04-25 06:11:00,
2013-04-25 02:16:00,55.4,50.9,29.87,SSE,158,2.7,3.8,85,0.00,,,0.00,WUHU216HW,2013-04-25 06:16:00,
2013-04-25 02:21:00,55.6,51.1,29.87,South,180,2.5,3.6,85,0.00,,,0.00,WUHU216HW,2013-04-25 06:21:00,
2013-04-25 02:26:00,55.6,51.1,29.87,SW,225,1.6,2.7,85,0.00,,,0.00,WUHU216HW,2013-04-25 06:26:00,
2013-04-25 02:31:00,55.8,51.3,29.87,SSW,203,3.4,3.4,85,0.00,,,0.00,WUHU216HW,2013-04-25 06:31:00,
2013-04-25 02:36:00,55.8,51.3,29.88,SW,225,3.4,3.4,85,0.00,,,0.00,WUHU216HW,2013-04-25 06:36:00,
2013-04-25 02:41:00,55.8,51.3,29.88,West,270,3.4,3.4,85,0.00,,,0.00,WUHU216HW,2013-04-25 06:41:00,
2013-04-25 02:46:00,56.0,51.5,29.88,West,270,2.2,3.4,85,0.00,,,0.00,WUHU216HW,2013-04-25 06:46:00,
2013-04-25 02:51:00,56.2,51.7,29.88,NNW,338,3.6,3.6,85,0.00,,,0.00,WUHU216HW,2013-04-25 06:51:00,
2013-04-25 02:56:00,56.3,51.5,29.88,WNW,293,3.4,7.8,84,0.00,,,0.00,WUHU216HW,2013-04-25 06:56:00,
2013-04-25 03:01:00,56.5,51.0,29.89,WNW,293,8.5,11.6,82,0.00,,,0.00,WUHU216HW,2013-04-25 07:01:00,
2013-04-25 03:06:00,56.5,49.0,29.90,West,270,6.9,11.6,76,0.00,,,0.00,WUHU216HW,2013-04-25 07:06:00,
2013-04-25 03:11:00,56.5,47.6,29.90,NW,315,4.7,9.6,72,0.00,,,0.00,WUHU216HW,2013-04-25 07:11:00,
2013-04-25 03:16:00,56.5,46.9,29.91,West,270,5.4,8.5,70,0.00,,,0.00,WUHU216HW,2013-04-25 07:16:00,
2013-04-25 03:21:00,56.5,45.6,29.91,West,270,7.6,8.7,67,0.00,,,0.00,WUHU216HW,2013-04-25 07:21:00,
2013-04-25 03:26:00,56.5,45.3,29.92,WSW,248,4.7,8.7,66,0.00,,,0.00,WUHU216HW,2013-04-25 07:26:00,
2013-04-25 03:31:00,56.3,43.9,29.92,WSW,248,3.8,10.3,63,0.00,,,0.00,WUHU216HW,2013-04-25 07:31:00,
2013-04-25 03:36:00,56.2,43.8,29.92,SSW,203,4.5,10.3,63,0.00,,,0.00,WUHU216HW,2013-04-25 07:36:00,
2013-04-25 03:41:00,56.0,43.6,29.93,SW,225,3.4,8.5,63,0.00,,,0.00,WUHU216HW,2013-04-25 07:41:00,
2013-04-25 03:46:00,55.8,42.9,29.93,SW,225,5.6,11.9,62,0.00,,,0.00,WUHU216HW,2013-04-25 07:46:00,
2013-04-25 03:51:00,55.4,41.8,29.93,SSW,203,3.4,11.9,60,0.00,,,0.00,WUHU216HW,2013-04-25 07:51:00,
2013-04-25 03:56:00,55.3,42.4,29.93,West,270,5.6,8.5,62,0.00,,,0.00,WUHU216HW,2013-04-25 07:56:00,
2013-04-25 04:01:00,55.1,41.4,29.93,NNW,338,3.8,9.8,60,0.00,,,0.00,WUHU216HW,2013-04-25 08:01:00,
2013-04-25 04:06:00,54.9,41.7,29.94,WNW,293,6.9,9.8,61,0.00,,,0.00,WUHU216HW,2013-04-25 08:06:00,
2013-04-25 04:11:00,54.5,41.8,29.94,WSW,248,1.6,9.2,62,0.00,,,0.00,WUHU216HW,2013-04-25 08:11:00,
2013-04-25 04:16:00,54.4,41.6,29.95,SW,225,6.5,7.8,62,0.00,,,0.00,WUHU216HW,2013-04-25 08:16:00,
2013-04-25 04:21:00,54.0,40.9,29.95,WSW,248,9.6,9.6,61,0.00,,,0.00,WUHU216HW,2013-04-25 08:21:00,
2013-04-25 04:26:00,53.8,41.1,29.96,WNW,293,4.9,9.6,62,0.00,,,0.00,WUHU216HW,2013-04-25 08:26:00,
2013-04-25 04:31:00,53.6,41.0,29.96,WNW,293,4.7,6.9,62,0.00,,,0.00,WUHU216HW,2013-04-25 08:31:00,
2013-04-25 04:36:00,53.3,40.6,29.96,WSW,248,3.6,9.8,62,0.00,,,0.00,WUHU216HW,2013-04-25 08:36:00,
2013-04-25 04:41:00,53.1,40.4,29.96,WSW,248,6.7,9.8,62,0.00,,,0.00,WUHU216HW,2013-04-25 08:41:00,
2013-04-25 04:46:00,52.9,40.2,29.97,WSW,248,6.3,9.2,62,0.00,,,0.00,WUHU216HW,2013-04-25 08:46:00,
2013-04-25 04:51:00,52.7,39.6,29.97,North,0,2.9,9.2,61,0.00,,,0.00,WUHU216HW,2013-04-25 08:51:00,
2013-04-25 04:56:00,52.6,39.5,29.97,WSW,248,3.4,9.6,61,0.00,,,0.00,WUHU216HW,2013-04-25 08:56:00,
2013-04-25 05:01:00,52.6,39.9,29.97,NNW,338,3.8,9.6,62,0.00,,,0.00,WUHU216HW,2013-04-25 09:01:00,
2013-04-25 05:06:00,52.4,39.7,29.97,SW,225,5.6,7.8,62,0.00,,,0.00,WUHU216HW,2013-04-25 09:06:00,
2013-04-25 05:11:00,52.2,39.5,29.98,NW,315,8.3,8.3,62,0.00,,,0.00,WUHU216HW,2013-04-25 09:11:00,
2013-04-25 05:16:00,51.8,39.6,29.99,NNW,338,4.0,8.3,63,0.00,,,0.00,WUHU216HW,2013-04-25 09:16:00,
2013-04-25 05:21:00,51.8,38.8,29.99,West,270,4.7,10.1,61,0.00,,,0.00,WUHU216HW,2013-04-25 09:21:00,
2013-04-25 05:26:00,51.5,38.0,29.99,WSW,248,7.2,10.3,60,0.00,,,0.00,WUHU216HW,2013-04-25 09:26:00,
2013-04-25 05:31:00,51.5,38.4,30.00,West,270,7.2,10.3,61,0.00,,,0.00,WUHU216HW,2013-04-25 09:31:00,
2013-04-25 05:36:00,51.3,39.1,30.01,WNW,293,4.9,9.2,63,0.00,,,0.00,WUHU216HW,2013-04-25 09:36:00,
2013-04-25 05:41:00,50.9,39.2,30.01,WSW,248,5.4,9.2,64,0.00,,,0.00,WUHU216HW,2013-04-25 09:41:00,
2013-04-25 05:46:00,50.6,39.3,30.02,WSW,248,2.5,8.1,65,0.01,,,0.00,WUHU216HW,2013-04-25 09:46:00,
2013-04-25 05:51:00,50.0,39.1,30.02,West,270,1.8,8.1,66,0.01,,,0.01,WUHU216HW,2013-04-25 09:51:00,
2013-04-25 05:56:00,49.9,39.7,30.02,North,0,2.9,4.5,68,0.02,,,0.02,WUHU216HW,2013-04-25 09:56:00,
2013-04-25 06:01:00,49.5,39.3,30.02,SW,225,4.5,4.7,68,0.02,,,0.02,WUHU216HW,2013-04-25 10:01:00,
2013-04-25 06:06:00,49.3,39.6,30.02,South,180,5.6,5.6,69,0.02,,,0.02,WUHU216HW,2013-04-25 10:06:00,
2013-04-25 06:11:00,49.0,39.6,30.03,West,270,4.0,5.6,70,0.02,,,0.02,WUHU216HW,2013-04-25 10:11:00,
2013-04-25 06:16:00,48.8,39.8,30.03,West,270,2.5,4.7,71,0.02,,,0.02,WUHU216HW,2013-04-25 10:16:00,
2013-04-25 06:21:00,48.6,39.6,30.04,SW,225,3.8,4.7,71,0.02,,,0.02,WUHU216HW,2013-04-25 10:21:00,
2013-04-25 06:26:00,48.6,39.6,30.05,SW,225,2.7,4.9,71,0.02,,,0.02,WUHU216HW,2013-04-25 10:26:00,
2013-04-25 06:31:00,48.4,39.8,30.05,North,0,3.4,4.9,72,0.02,,,0.02,WUHU216HW,2013-04-25 10:31:00,
2013-04-25 06:36:00,48.4,39.8,30.07,WSW,248,1.8,3.4,72,0.02,,,0.02,WUHU216HW,2013-04-25 10:36:00,
2013-04-25 06:41:00,48.4,39.8,30.08,SSW,203,1.8,3.8,72,0.02,,,0.02,WUHU216HW,2013-04-25 10:41:00,
2013-04-25 06:46:00,48.4,39.4,30.08,NNW,338,9.2,9.2,71,0.01,,,0.02,WUHU216HW,2013-04-25 10:46:00,
2013-04-25 06:51:00,48.4,39.1,30.07,NNW,338,2.2,11.6,70,0.01,,,0.02,WUHU216HW,2013-04-25 10:51:00,
2013-04-25 06:56:00,48.4,37.9,30.06,NNW,338,10.5,11.6,67,0.00,,,0.02,WUHU216HW,2013-04-25 10:56:00,
2013-04-25 07:01:00,48.6,38.5,30.08,West,270,4.5,10.5,68,0.00,,,0.02,WUHU216HW,2013-04-25 11:01:00,
2013-04-25 07:06:00,48.6,37.4,30.08,NW,315,7.4,11.4,65,0.00,,,0.02,WUHU216HW,2013-04-25 11:06:00,
2013-04-25 07:11:00,48.6,36.5,30.09,WNW,293,6.9,12.3,63,0.00,,,0.02,WUHU216HW,2013-04-25 11:11:00,
2013-04-25 07:16:00,48.6,36.5,30.08,WNW,293,6.3,12.3,63,0.00,,,0.02,WUHU216HW,2013-04-25 11:16:00,
2013-04-25 07:21:00,48.6,36.2,30.08,NW,315,12.1,12.1,62,0.00,,,0.02,WUHU216HW,2013-04-25 11:21:00,
2013-04-25 07:26:00,48.6,36.5,30.10,WNW,293,6.5,12.1,63,0.00,,,0.02,WUHU216HW,2013-04-25 11:26:00,
2013-04-25 07:31:00,48.6,36.2,30.10,West,270,5.6,10.5,62,0.00,,,0.02,WUHU216HW,2013-04-25 11:31:00,
2013-04-25 07:36:00,48.4,36.0,30.11,WNW,293,5.1,10.5,62,0.00,,,0.02,WUHU216HW,2013-04-25 11:36:00,
2013-04-25 07:41:00,48.8,36.7,30.11,WNW,293,3.4,11.0,63,0.00,,,0.02,WUHU216HW,2013-04-25 11:41:00,
2013-04-25 07:46:00,49.1,37.4,30.12,NNW,338,5.4,11.0,64,0.00,,,0.02,WUHU216HW,2013-04-25 11:46:00,
2013-04-25 07:51:00,49.3,37.3,30.13,WNW,293,1.6,9.4,63,0.00,,,0.02,WUHU216HW,2013-04-25 11:51:00,
2013-04-25 07:56:00,49.3,37.3,30.13,NNE,23,8.1,8.1,63,0.00,,,0.02,WUHU216HW,2013-04-25 11:56:00,
2013-04-25 08:01:00,49.3,37.3,30.13,WNW,293,1.8,8.1,63,0.00,,,0.02,WUHU216HW,2013-04-25 12:01:00,
2013-04-25 08:06:00,49.5,37.5,30.13,NNW,338,5.8,6.5,63,0.00,,,0.02,WUHU216HW,2013-04-25 12:06:00,
2013-04-25 08:11:00,49.7,36.8,30.13,NW,315,10.5,13.2,61,0.00,,,0.02,WUHU216HW,2013-04-25 12:11:00,
2013-04-25 08:16:00,49.7,36.4,30.12,NW,315,8.1,13.2,60,0.00,,,0.02,WUHU216HW,2013-04-25 12:16:00,
2013-04-25 08:21:00,49.7,36.4,30.12,West,270,9.4,10.5,60,0.00,,,0.02,WUHU216HW,2013-04-25 12:21:00,
2013-04-25 08:26:00,49.7,35.5,30.13,West,270,8.1,12.3,58,0.00,,,0.02,WUHU216HW,2013-04-25 12:26:00,
2013-04-25 08:31:00,49.7,34.6,30.13,WNW,293,7.2,13.2,56,0.00,,,0.02,WUHU216HW,2013-04-25 12:31:00,
2013-04-25 08:36:00,49.9,35.2,30.13,WNW,293,10.3,13.2,57,0.00,,,0.02,WUHU216HW,2013-04-25 12:36:00,
2013-04-25 08:41:00,50.0,34.9,30.13,West,270,11.4,13.0,56,0.00,,,0.02,WUHU216HW,2013-04-25 12:41:00,
2013-04-25 08:46:00,50.0,34.5,30.12,WNW,293,11.9,13.0,55,0.00,,,0.02,WUHU216HW,2013-04-25 12:46:00,
2013-04-25 08:51:00,50.2,35.1,30.12,NW,315,5.4,15.0,56,0.00,,,0.02,WUHU216HW,2013-04-25 12:51:00,
2013-04-25 08:56:00,50.2,35.1,30.12,NW,315,6.9,15.0,56,0.00,,,0.02,WUHU216HW,2013-04-25 12:56:00,
2013-04-25 09:01:00,50.6,34.9,30.12,NNW,338,9.2,9.8,55,0.00,,,0.02,WUHU216HW,2013-04-25 13:01:00,
2013-04-25 09:06:00,51.1,35.0,30.13,North,0,9.2,12.1,54,0.00,,,0.02,WUHU216HW,2013-04-25 13:06:00,
2013-04-25 09:11:00,51.7,35.0,30.13,NW,315,9.8,13.9,53,0.00,,,0.02,WUHU216HW,2013-04-25 13:11:00,
2013-04-25 09:16:00,51.8,35.2,30.13,NW,315,11.9,13.9,53,0.00,,,0.02,WUHU216HW,2013-04-25 13:16:00,
2013-04-25 09:21:00,52.0,34.9,30.13,NNW,338,6.9,11.9,52,0.00,,,0.02,WUHU216HW,2013-04-25 13:21:00,
2013-04-25 09:26:00,52.2,35.6,30.14,WNW,293,11.9,11.9,53,0.00,,,0.02,WUHU216HW,2013-04-25 13:26:00,
2013-04-25 09:31:00,52.4,35.3,30.13,NW,315,9.4,11.9,52,0.00,,,0.02,WUHU216HW,2013-04-25 13:31:00,
2013-04-25 09:36:00,52.6,35.4,30.13,NW,315,4.9,13.0,52,0.00,,,0.02,WUHU216HW,2013-04-25 13:36:00,
2013-04-25 09:41:00,52.9,35.3,30.13,NW,315,8.5,13.0,51,0.00,,,0.02,WUHU216HW,2013-04-25 13:41:00,
2013-04-25 09:46:00,52.7,35.1,30.13,NNE,23,4.0,11.9,51,0.00,,,0.02,WUHU216HW,2013-04-25 13:46:00,
2013-04-25 09:51:00,52.9,34.3,30.13,North,0,7.6,11.9,49,0.00,,,0.02,WUHU216HW,2013-04-25 13:51:00,
2013-04-25 09:56:00,52.9,34.8,30.13,NW,315,2.7,13.2,50,0.00,,,0.02,WUHU216HW,2013-04-25 13:56:00,
2013-04-25 10:01:00,53.3,35.7,30.13,West,270,3.8,13.2,51,0.00,,,0.02,WUHU216HW,2013-04-25 14:01:00,
2013-04-25 10:06:00,54.0,35.8,30.13,SW,225,4.7,8.5,50,0.00,,,0.02,WUHU216HW,2013-04-25 14:06:00,
2013-04-25 10:11:00,54.4,34.5,30.13,NW,315,9.2,13.4,47,0.00,,,0.02,WUHU216HW,2013-04-25 14:11:00,
2013-04-25 10:16:00,54.4,34.5,30.14,NNW,338,6.9,13.4,47,0.00,,,0.02,WUHU216HW,2013-04-25 14:16:00,
2013-04-25 10:21:00,54.7,35.3,30.14,WNW,293,6.9,9.8,48,0.00,,,0.02,WUHU216HW,2013-04-25 14:21:00,
2013-04-25 10:26:00,54.9,34.9,30.14,NW,315,4.5,9.2,47,0.00,,,0.02,WUHU216HW,2013-04-25 14:26:00,
2013-04-25 10:31:00,54.9,34.9,30.14,WNW,293,8.1,9.2,47,0.00,,,0.02,WUHU216HW,2013-04-25 14:31:00,
2013-04-25 10:36:00,55.3,35.3,30.13,WNW,293,6.9,11.0,47,0.00,,,0.02,WUHU216HW,2013-04-25 14:36:00,
2013-04-25 10:41:00,55.1,35.1,30.14,WNW,293,5.1,11.0,47,0.00,,,0.02,WUHU216HW,2013-04-25 14:41:00,
2013-04-25 10:46:00,55.4,35.4,30.14,West,270,2.9,10.5,47,0.00,,,0.02,WUHU216HW,2013-04-25 14:46:00,
2013-04-25 10:51:00,55.8,35.7,30.14,NW,315,5.4,10.5,47,0.00,,,0.02,WUHU216HW,2013-04-25 14:51:00,
2013-04-25 10:56:00,56.2,36.1,30.15,NW,315,6.5,6.5,47,0.00,,,0.02,WUHU216HW,2013-04-25 14:56:00,
2013-04-25 11:01:00,56.5,36.5,30.15,NW,315,3.8,8.3,47,0.00,,,0.02,WUHU216HW,2013-04-25 15:01:00,
2013-04-25 11:06:00,56.9,36.8,30.15,WSW,248,3.4,8.9,47,0.00,,,0.02,WUHU216HW,2013-04-25 15:06:00,
2013-04-25 11:11:00,57.1,36.4,30.15,WSW,248,5.4,8.9,46,0.00,,,0.02,WUHU216HW,2013-04-25 15:11:00,
2013-04-25 11:16:00,57.4,36.7,30.15,West,270,6.0,6.9,46,0.00,,,0.02,WUHU216HW,2013-04-25 15:16:00,
2013-04-25 11:21:00,57.6,36.4,30.15,NNW,338,9.8,9.8,45,0.00,,,0.02,WUHU216HW,2013-04-25 15:21:00,
2013-04-25 11:26:00,57.6,35.7,30.15,NW,315,7.6,9.8,44,0.00,,,0.02,WUHU216HW,2013-04-25 15:26:00,
2013-04-25 11:31:00,57.6,35.7,30.15,SSW,203,1.8,7.6,44,0.00,,,0.02,WUHU216HW,2013-04-25 15:31:00,
2013-04-25 11:36:00,58.0,36.1,30.15,West,270,2.7,6.3,44,0.00,,,0.02,WUHU216HW,2013-04-25 15:36:00,
2013-04-25 11:41:00,58.7,36.7,30.15,WNW,293,10.1,10.1,44,0.00,,,0.02,WUHU216HW,2013-04-25 15:41:00,
2013-04-25 11:46:00,58.7,35.0,30.15,WNW,293,6.0,10.1,41,0.00,,,0.02,WUHU216HW,2013-04-25 15:46:00,
2013-04-25 11:51:00,58.7,36.2,30.15,NW,315,6.3,6.9,43,0.00,,,0.02,WUHU216HW,2013-04-25 15:51:00,
2013-04-25 11:56:00,58.9,35.2,30.15,NNW,338,3.4,9.6,41,0.00,,,0.02,WUHU216HW,2013-04-25 15:56:00,
2013-04-25 12:01:00,59.2,36.6,30.15,NW,315,4.7,9.6,43,0.00,,,0.02,WUHU216HW,2013-04-25 16:01:00,
2013-04-25 12:06:00,59.4,36.8,30.15,SSW,203,6.3,7.2,43,0.00,,,0.02,WUHU216HW,2013-04-25 16:06:00,
2013-04-25 12:11:00,59.8,36.0,30.15,WSW,248,4.0,7.4,41,0.00,,,0.02,WUHU216HW,2013-04-25 16:11:00,
2013-04-25 12:16:00,59.8,36.0,30.15,WNW,293,6.3,7.4,41,0.00,,,0.02,WUHU216HW,2013-04-25 16:16:00,
2013-04-25 12:21:00,59.9,36.1,30.15,NW,315,4.7,6.3,41,0.00,,,0.02,WUHU216HW,2013-04-25 16:21:00,
2013-04-25 12:26:00,60.3,36.5,30.15,WSW,248,2.9,5.8,41,0.00,,,0.02,WUHU216HW,2013-04-25 16:26:00,
2013-04-25 12:31:00,60.8,36.4,30.15,North,0,4.0,5.8,40,0.00,,,0.02,WUHU216HW,2013-04-25 16:31:00,
2013-04-25 12:36:00,60.8,34.2,30.15,SSW,203,10.5,10.5,37,0.00,,,0.02,WUHU216HW,2013-04-25 16:36:00,
2013-04-25 12:41:00,60.8,36.4,30.14,West,270,5.4,10.5,40,0.00,,,0.02,WUHU216HW,2013-04-25 16:41:00,
2013-04-25 12:46:00,61.2,35.3,30.14,SSE,158,6.5,6.5,38,0.00,,,0.02,WUHU216HW,2013-04-25 16:46:00,
2013-04-25 12:51:00,61.0,35.1,30.14,West,270,3.4,8.1,38,0.00,,,0.02,WUHU216HW,2013-04-25 16:51:00,
2013-04-25 12:56:00,61.2,36.0,30.14,West,270,1.6,8.1,39,0.00,,,0.02,WUHU216HW,2013-04-25 16:56:00,
2013-04-25 13:01:00,61.7,36.5,30.14,NW,315,9.4,9.4,39,0.00,,,0.02,WUHU216HW,2013-04-25 17:01:00,
2013-04-25 13:06:00,61.7,35.0,30.14,NW,315,5.8,9.4,37,0.00,,,0.02,WUHU216HW,2013-04-25 17:06:00,
2013-04-25 13:11:00,61.7,35.0,30.14,NW,315,3.4,8.1,37,0.00,,,0.02,WUHU216HW,2013-04-25 17:11:00,
2013-04-25 13:16:00,61.9,35.9,30.14,NW,315,4.7,5.4,38,0.00,,,0.02,WUHU216HW,2013-04-25 17:16:00,
2013-04-25 13:21:00,61.9,35.9,30.14,NNW,338,4.0,6.9,38,0.00,,,0.02,WUHU216HW,2013-04-25 17:21:00,
2013-04-25 13:26:00,61.6,35.6,30.14,SSE,158,5.1,6.9,38,0.00,,,0.02,WUHU216HW,2013-04-25 17:26:00,
2013-04-25 13:31:00,59.9,34.8,30.14,ENE,68,2.0,5.8,39,0.00,,,0.02,WUHU216HW,2013-04-25 17:31:00,
2013-04-25 13:36:00,59.2,37.2,30.14,SE,135,4.5,4.5,44,0.00,,,0.02,WUHU216HW,2013-04-25 17:36:00,
2013-04-25 13:41:00,58.5,38.9,30.14,East,90,4.3,4.7,48,0.00,,,0.02,WUHU216HW,2013-04-25 17:41:00,
2013-04-25 13:46:00,58.1,39.7,30.14,East,90,6.0,6.0,50,0.00,,,0.02,WUHU216HW,2013-04-25 17:46:00,
2013-04-25 13:51:00,58.0,39.0,30.14,SE,135,1.1,6.0,49,0.00,,,0.02,WUHU216HW,2013-04-25 17:51:00,
2013-04-25 13:56:00,57.8,38.8,30.15,SSE,158,2.7,5.6,49,0.00,,,0.02,WUHU216HW,2013-04-25 17:56:00,
2013-04-25 14:01:00,58.1,38.5,30.14,East,90,5.1,5.6,48,0.00,,,0.02,WUHU216HW,2013-04-25 18:01:00,
2013-04-25 14:06:00,58.0,37.8,30.14,ESE,113,5.4,5.4,47,0.00,,,0.02,WUHU216HW,2013-04-25 18:06:00,
2013-04-25 14:11:00,57.6,37.4,30.14,South,180,3.6,5.4,47,0.00,,,0.02,WUHU216HW,2013-04-25 18:11:00,
2013-04-25 14:16:00,57.6,39.3,30.14,ENE,68,4.0,5.1,50,0.00,,,0.02,WUHU216HW,2013-04-25 18:16:00,
2013-04-25 14:21:00,57.8,37.6,30.14,ESE,113,4.0,5.1,47,0.00,,,0.02,WUHU216HW,2013-04-25 18:21:00,
2013-04-25 14:26:00,57.6,36.9,30.14,ENE,68,2.7,4.7,46,0.00,,,0.02,WUHU216HW,2013-04-25 18:26:00,
2013-04-25 14:31:00,57.8,37.1,30.14,SE,135,1.3,4.7,46,0.00,,,0.02,WUHU216HW,2013-04-25 18:31:00,
2013-04-25 14:36:00,58.0,37.3,30.15,SSE,158,1.8,4.7,46,0.00,,,0.02,WUHU216HW,2013-04-25 18:36:00,
2013-04-25 14:41:00,58.3,37.0,30.14,SE,135,2.5,5.4,45,0.00,,,0.02,WUHU216HW,2013-04-25 18:41:00,
2013-04-25 14:46:00,58.3,37.0,30.14,SE,135,4.9,5.4,45,0.00,,,0.02,WUHU216HW,2013-04-25 18:46:00,
2013-04-25 14:51:00,58.5,36.0,30.15,East,90,3.1,4.9,43,0.00,,,0.02,WUHU216HW,2013-04-25 18:51:00,
2013-04-25 14:56:00,58.0,34.4,30.14,NE,45,3.1,4.7,41,0.00,,,0.02,WUHU216HW,2013-04-25 18:56:00,
2013-04-25 15:01:00,57.6,34.6,30.14,SSE,158,3.4,4.5,42,0.00,,,0.02,WUHU216HW,2013-04-25 19:01:00,
2013-04-25 15:06:00,58.0,33.8,30.14,NE,45,3.4,4.0,40,0.00,,,0.02,WUHU216HW,2013-04-25 19:06:00,
2013-04-25 15:11:00,58.0,37.3,30.14,South,180,4.7,4.7,46,0.00,,,0.02,WUHU216HW,2013-04-25 19:11:00,
2013-04-25 15:16:00,58.1,38.5,30.14,SE,135,4.7,5.4,48,0.00,,,0.02,WUHU216HW,2013-04-25 19:16:00,
2013-04-25 15:21:00,58.5,38.9,30.14,East,90,3.4,5.4,48,0.00,,,0.02,WUHU216HW,2013-04-25 19:21:00,
2013-04-25 15:26:00,58.1,39.7,30.14,SE,135,3.4,3.8,50,0.00,,,0.02,WUHU216HW,2013-04-25 19:26:00,
2013-04-25 15:31:00,58.0,40.0,30.14,SSW,203,1.8,4.0,51,0.00,,,0.02,WUHU216HW,2013-04-25 19:31:00,
2013-04-25 15:36:00,58.0,40.0,30.14,South,180,5.8,5.8,51,0.00,,,0.02,WUHU216HW,2013-04-25 19:36:00,
2013-04-25 15:41:00,58.0,40.0,30.14,SSW,203,4.7,6.5,51,0.00,,,0.02,WUHU216HW,2013-04-25 19:41:00,
2013-04-25 15:46:00,58.0,39.5,30.14,SSW,203,1.8,6.5,50,0.00,,,0.02,WUHU216HW,2013-04-25 19:46:00,
2013-04-25 15:51:00,58.1,40.1,30.14,SSE,158,2.2,4.7,51,0.00,,,0.02,WUHU216HW,2013-04-25 19:51:00,
2013-04-25 15:56:00,58.5,38.3,30.14,ESE,113,1.1,3.4,47,0.00,,,0.02,WUHU216HW,2013-04-25 19:56:00,
2013-04-25 16:01:00,58.5,38.9,30.14,SE,135,2.0,4.7,48,0.00,,,0.02,WUHU216HW,2013-04-25 20:01:00,
2013-04-25 16:06:00,58.5,39.4,30.14,SSE,158,3.8,4.7,49,0.00,,,0.02,WUHU216HW,2013-04-25 20:06:00,
2013-04-25 16:11:00,58.7,40.1,30.14,South,180,2.5,6.5,50,0.00,,,0.02,WUHU216HW,2013-04-25 20:11:00,
2013-04-25 16:16:00,58.5,38.3,30.14,SSE,158,1.8,6.5,47,0.00,,,0.02,WUHU216HW,2013-04-25 20:16:00,
2013-04-25 16:21:00,58.3,37.5,30.14,SSE,158,2.9,6.3,46,0.00,,,0.02,WUHU216HW,2013-04-25 20:21:00,
2013-04-25 16:26:00,58.0,37.8,30.14,SSE,158,5.6,7.8,47,0.00,,,0.02,WUHU216HW,2013-04-25 20:26:00,
2013-04-25 16:31:00,58.0,38.3,30.14,SE,135,4.7,7.8,48,0.00,,,0.02,WUHU216HW,2013-04-25 20:31:00,
2013-04-25 16:36:00,58.0,39.0,30.14,South,180,1.3,6.7,49,0.00,,,0.02,WUHU216HW,2013-04-25 20:36:00,
2013-04-25 16:41:00,58.0,39.5,30.14,SSE,158,4.9,6.7,50,0.00,,,0.02,WUHU216HW,2013-04-25 20:41:00,
2013-04-25 16:46:00,58.0,39.5,30.14,SSE,158,5.8,6.5,50,0.00,,,0.02,WUHU216HW,2013-04-25 20:46:00,
2013-04-25 16:51:00,58.0,40.0,30.14,ESE,113,4.5,6.5,51,0.00,,,0.02,WUHU216HW,2013-04-25 20:51:00,
2013-04-25 16:56:00,58.0,40.5,30.15,SSE,158,2.5,6.3,52,0.00,,,0.02,WUHU216HW,2013-04-25 20:56:00,
2013-04-25 17:01:00,57.6,40.1,30.15,SSE,158,4.7,6.9,52,0.00,,,0.02,WUHU216HW,2013-04-25 21:01:00,
2013-04-25 17:06:00,57.4,40.4,30.15,SSE,158,4.9,7.4,53,0.00,,,0.02,WUHU216HW,2013-04-25 21:06:00,
2013-04-25 17:11:00,57.2,40.3,30.15,South,180,4.7,7.4,53,0.00,,,0.02,WUHU216HW,2013-04-25 21:11:00,
2013-04-25 17:16:00,56.9,40.0,30.15,SE,135,6.3,6.7,53,0.00,,,0.02,WUHU216HW,2013-04-25 21:16:00,
2013-04-25 17:21:00,56.7,39.8,30.15,South,180,4.0,6.7,53,0.00,,,0.02,WUHU216HW,2013-04-25 21:21:00,
2013-04-25 17:26:00,56.7,39.8,30.16,SE,135,4.0,5.4,53,0.00,,,0.02,WUHU216HW,2013-04-25 21:26:00,
2013-04-25 17:31:00,56.7,40.2,30.15,SSE,158,8.3,8.3,54,0.00,,,0.02,WUHU216HW,2013-04-25 21:31:00,
2013-04-25 17:36:00,56.9,40.4,30.15,SSE,158,4.0,8.3,54,0.00,,,0.02,WUHU216HW,2013-04-25 21:36:00,
2013-04-25 17:41:00,56.9,40.4,30.15,SSE,158,4.0,4.7,54,0.00,,,0.02,WUHU216HW,2013-04-25 21:41:00,
2013-04-25 17:46:00,56.9,40.4,30.15,SSE,158,3.1,7.2,54,0.00,,,0.02,WUHU216HW,2013-04-25 21:46:00,
2013-04-25 17:51:00,56.7,40.2,30.16,SSE,158,4.3,7.2,54,0.00,,,0.02,WUHU216HW,2013-04-25 21:51:00,
2013-04-25 17:56:00,56.5,40.5,30.16,SW,225,1.8,6.9,55,0.00,,,0.02,WUHU216HW,2013-04-25 21:56:00,
2013-04-25 18:01:00,56.2,40.1,30.16,SSW,203,3.4,3.6,55,0.00,,,0.02,WUHU216HW,2013-04-25 22:01:00,
2013-04-25 18:06:00,56.2,40.6,30.16,SE,135,7.2,7.2,56,0.00,,,0.02,WUHU216HW,2013-04-25 22:06:00,
2013-04-25 18:11:00,56.2,41.0,30.15,SSE,158,4.5,8.1,57,0.00,,,0.02,WUHU216HW,2013-04-25 22:11:00,
2013-04-25 18:16:00,55.8,40.7,30.15,SE,135,4.7,8.1,57,0.00,,,0.02,WUHU216HW,2013-04-25 22:16:00,
2013-04-25 18:21:00,55.6,40.5,30.15,SSW,203,4.5,6.9,57,0.00,,,0.02,WUHU216HW,2013-04-25 22:21:00,
2013-04-25 18:26:00,55.3,40.7,30.16,South,180,2.5,6.9,58,0.00,,,0.02,WUHU216HW,2013-04-25 22:26:00,
2013-04-25 18:31:00,55.1,40.5,30.16,SSE,158,2.2,6.7,58,0.00,,,0.02,WUHU216HW,2013-04-25 22:31:00,
2013-04-25 18:36:00,55.1,41.0,30.16,SE,135,3.8,6.7,59,0.00,,,0.02,WUHU216HW,2013-04-25 22:36:00,
2013-04-25 18:41:00,55.1,41.0,30.16,SSE,158,3.1,4.7,59,0.00,,,0.02,WUHU216HW,2013-04-25 22:41:00,
2013-04-25 18:46:00,54.9,40.8,30.16,SSE,158,5.4,5.6,59,0.00,,,0.02,WUHU216HW,2013-04-25 22:46:00,
2013-04-25 18:51:00,54.7,41.1,30.16,SW,225,2.2,6.5,60,0.00,,,0.02,WUHU216HW,2013-04-25 22:51:00,
2013-04-25 18:56:00,54.5,41.0,30.17,SE,135,3.4,6.5,60,0.00,,,0.02,WUHU216HW,2013-04-25 22:56:00,
2013-04-25 19:01:00,54.4,41.2,30.16,South,180,4.0,4.0,61,0.00,,,0.02,WUHU216HW,2013-04-25 23:01:00,
2013-04-25 19:06:00,54.4,41.2,30.16,SSE,158,3.6,6.7,61,0.00,,,0.02,WUHU216HW,2013-04-25 23:06:00,
2013-04-25 19:11:00,54.0,40.9,30.17,South,180,1.1,6.7,61,0.00,,,0.02,WUHU216HW,2013-04-25 23:11:00,
2013-04-25 19:16:00,54.0,41.2,30.17,South,180,2.5,4.3,62,0.00,,,0.02,WUHU216HW,2013-04-25 23:16:00,
2013-04-25 19:21:00,53.8,41.1,30.17,SE,135,4.0,4.3,62,0.00,,,0.02,WUHU216HW,2013-04-25 23:21:00,
2013-04-25 19:26:00,53.6,41.0,30.17,SSE,158,3.4,6.3,62,0.00,,,0.02,WUHU216HW,2013-04-25 23:26:00,
2013-04-25 19:31:00,53.3,41.0,30.17,South,180,3.4,6.3,63,0.00,,,0.02,WUHU216HW,2013-04-25 23:31:00,
2013-04-25 19:36:00,53.1,40.8,30.17,SE,135,3.8,5.4,63,0.00,,,0.02,WUHU216HW,2013-04-25 23:36:00,
2013-04-25 19:41:00,52.9,41.1,30.17,SSE,158,2.0,3.8,64,0.00,,,0.02,WUHU216HW,2013-04-25 23:41:00,
2013-04-25 19:46:00,52.7,40.9,30.17,SSE,158,1.3,3.4,64,0.00,,,0.02,WUHU216HW,2013-04-25 23:46:00,
2013-04-25 19:51:00,52.6,40.7,30.17,SE,135,2.2,3.6,64,0.00,,,0.02,WUHU216HW,2013-04-25 23:51:00,
2013-04-25 19:56:00,52.6,41.1,30.17,South,180,0.4,3.6,65,0.00,,,0.02,WUHU216HW,2013-04-25 23:56:00,
2013-04-25 20:01:00,52.4,41.0,30.18,SSE,158,0.4,1.6,65,0.00,,,0.02,WUHU216HW,2013-04-26 00:01:00,
2013-04-25 20:06:00,52.2,40.8,30.18,SSE,158,0.9,2.5,65,0.00,,,0.02,WUHU216HW,2013-04-26 00:06:00,
2013-04-25 20:11:00,52.2,41.1,30.18,SSE,158,0.9,2.5,66,0.00,,,0.02,WUHU216HW,2013-04-26 00:11:00,
2013-04-25 20:16:00,52.2,41.1,30.18,SSE,158,1.3,2.5,66,0.00,,,0.02,WUHU216HW,2013-04-26 00:16:00,
2013-04-25 20:21:00,52.0,41.0,30.18,SSE,158,2.5,2.5,66,0.00,,,0.02,WUHU216HW,2013-04-26 00:21:00,
2013-04-25 20:26:00,51.8,41.2,30.18,SSE,158,2.0,2.9,67,0.00,,,0.02,WUHU216HW,2013-04-26 00:26:00,
2013-04-25 20:31:00,51.8,41.2,30.18,SSE,158,2.2,3.4,67,0.00,,,0.02,WUHU216HW,2013-04-26 00:31:00,
2013-04-25 20:36:00,51.8,41.2,30.18,SSE,158,1.3,3.4,67,0.00,,,0.02,WUHU216HW,2013-04-26 00:36:00,
2013-04-25 20:41:00,51.7,41.5,30.19,SSE,158,1.3,2.5,68,0.00,,,0.02,WUHU216HW,2013-04-26 00:41:00,
2013-04-25 20:46:00,51.7,41.5,30.19,SSE,158,0.4,2.5,68,0.00,,,0.02,WUHU216HW,2013-04-26 00:46:00,
2013-04-25 20:51:00,51.5,41.3,30.19,SSE,158,1.1,1.3,68,0.00,,,0.02,WUHU216HW,2013-04-26 00:51:00,
2013-04-25 20:56:00,51.5,41.3,30.20,SSE,158,0.9,1.8,68,0.00,,,0.02,WUHU216HW,2013-04-26 00:56:00,
2013-04-25 21:01:00,51.5,41.3,30.20,SSE,158,0.4,1.8,68,0.00,,,0.02,WUHU216HW,2013-04-26 01:01:00,
2013-04-25 21:06:00,51.5,41.3,30.20,SSE,158,1.1,1.3,68,0.00,,,0.02,WUHU216HW,2013-04-26 01:06:00,
2013-04-25 21:11:00,51.5,41.3,30.20,SSE,158,1.1,2.2,68,0.00,,,0.02,WUHU216HW,2013-04-26 01:11:00,
2013-04-25 21:16:00,51.3,41.1,30.20,SE,135,0.7,2.2,68,0.00,,,0.02,WUHU216HW,2013-04-26 01:16:00,
2013-04-25 21:21:00,51.1,41.0,30.20,SSE,158,1.1,1.8,68,0.00,,,0.02,WUHU216HW,2013-04-26 01:21:00,
2013-04-25 21:26:00,51.1,41.0,30.21,SE,135,1.1,1.3,68,0.00,,,0.02,WUHU216HW,2013-04-26 01:26:00,
2013-04-25 21:31:00,51.1,41.0,30.21,SSE,158,1.6,2.0,68,0.00,,,0.02,WUHU216HW,2013-04-26 01:31:00,
2013-04-25 21:36:00,51.1,41.3,30.21,SSE,158,0.9,2.0,69,0.00,,,0.02,WUHU216HW,2013-04-26 01:36:00,
2013-04-25 21:41:00,51.1,41.3,30.21,SSE,158,1.8,1.8,69,0.00,,,0.02,WUHU216HW,2013-04-26 01:41:00,
2013-04-25 21:46:00,50.9,41.2,30.21,SSE,158,0.4,1.8,69,0.00,,,0.02,WUHU216HW,2013-04-26 01:46:00,
2013-04-25 21:51:00,50.9,41.2,30.21,SSE,158,0.4,1.8,69,0.00,,,0.02,WUHU216HW,2013-04-26 01:51:00,
2013-04-25 21:56:00,50.8,41.1,30.21,SSE,158,0.4,1.8,69,0.00,,,0.02,WUHU216HW,2013-04-26 01:56:00,
2013-04-25 22:01:00,50.8,41.1,30.21,SSE,158,0.7,0.9,69,0.00,,,0.02,WUHU216HW,2013-04-26 02:01:00,
2013-04-25 22:06:00,50.8,41.1,30.21,SSE,158,0.4,1.1,69,0.00,,,0.02,WUHU216HW,2013-04-26 02:06:00,
2013-04-25 22:11:00,50.6,41.2,30.21,SSE,158,1.1,1.1,70,0.00,,,0.02,WUHU216HW,2013-04-26 02:11:00,
2013-04-25 22:16:00,50.4,41.0,30.21,SSE,158,1.1,1.1,70,0.00,,,0.02,WUHU216HW,2013-04-26 02:16:00,
2013-04-25 22:21:00,50.4,41.0,30.21,SSE,158,1.1,1.3,70,0.00,,,0.02,WUHU216HW,2013-04-26 02:21:00,
2013-04-25 22:26:00,50.2,40.9,30.22,SSE,158,0.9,1.3,70,0.00,,,0.02,WUHU216HW,2013-04-26 02:26:00,
2013-04-25 22:31:00,50.2,40.9,30.21,SSE,158,2.5,2.5,70,0.00,,,0.02,WUHU216HW,2013-04-26 02:31:00,
2013-04-25 22:36:00,50.2,40.9,30.22,SSE,158,2.0,2.5,70,0.00,,,0.02,WUHU216HW,2013-04-26 02:36:00,
2013-04-25 22:41:00,50.2,40.5,30.22,SSE,158,1.1,2.0,69,0.00,,,0.02,WUHU216HW,2013-04-26 02:41:00,
2013-04-25 22:46:00,50.4,40.7,30.22,SSE,158,0.4,1.6,69,0.00,,,0.02,WUHU216HW,2013-04-26 02:46:00,
2013-04-25 22:51:00,50.4,40.7,30.22,SSE,158,1.1,1.1,69,0.00,,,0.02,WUHU216HW,2013-04-26 02:51:00,
2013-04-25 22:56:00,50.6,40.9,30.21,SSE,158,0.4,1.1,69,0.00,,,0.02,WUHU216HW,2013-04-26 02:56:00,
2013-04-25 23:01:00,50.6,41.2,30.22,SW,225,0.0,1.1,70,0.00,,,0.02,WUHU216HW,2013-04-26 03:01:00,
2013-04-25 23:06:00,50.6,41.2,30.22,SSE,158,0.4,1.1,70,0.00,,,0.02,WUHU216HW,2013-04-26 03:06:00,
2013-04-25 23:11:00,50.8,41.4,30.22,SSE,158,0.4,0.7,70,0.00,,,0.02,WUHU216HW,2013-04-26 03:11:00,
2013-04-25 23:16:00,50.8,41.1,30.22,South,180,0.4,0.7,69,0.00,,,0.02,WUHU216HW,2013-04-26 03:16:00,
2013-04-25 23:21:00,50.8,41.1,30.22,South,180,0.4,0.4,69,0.00,,,0.02,WUHU216HW,2013-04-26 03:21:00,
2013-04-25 23:26:00,50.6,40.9,30.22,South,180,0.2,0.4,69,0.00,,,0.02,WUHU216HW,2013-04-26 03:26:00,
2013-04-25 23:31:00,50.4,40.7,30.22,SW,225,0.0,1.1,69,0.00,,,0.02,WUHU216HW,2013-04-26 03:31:00,
2013-04-25 23:36:00,50.4,41.0,30.23,SW,225,0.0,1.1,70,0.00,,,0.02,WUHU216HW,2013-04-26 03:36:00,
2013-04-25 23:41:00,50.2,40.9,30.22,SSW,203,0.9,0.9,70,0.00,,,0.02,WUHU216HW,2013-04-26 03:41:00,
2013-04-25 23:46:00,50.0,40.7,30.22,SW,225,0.4,1.1,70,0.00,,,0.02,WUHU216HW,2013-04-26 03:46:00,
2013-04-25 23:51:00,50.0,40.7,30.23,SW,225,0.0,1.1,70,0.00,,,0.02,WUHU216HW,2013-04-26 03:51:00,
2013-04-25 23:56:00,49.9,40.5,30.23,SW,225,0.0,0.0,70,0.00,,,0.02,WUHU216HW,2013-04-26 03:56:00,